User: anonymous
Location: Caltech
(34.1382°N, 118.1253°W)
Time: 09:08:42
(UTC-07:00)
Language:

Sapphire - Orbit

View from above orbital plane
View from above orbital plane
View from above satellite
View from above satellite

Ground track
Ground track

The orbit data is extracted from the following two-line orbital elements,

1 26932U 01043D   14263.83686581  .00000068  00000-0  58446-4 0  7152
2 26932 067.0562 152.8522 0007187 292.2447 067.7891 14.30031062677321
Epoch (UTC): 20 September 2014 20:05:05
Eccentricity: 0.0007187
inclination: 67.0562°
perigee height: 786 km
apogee height: 797 km
right ascension of ascending node: 152.8522°
argument of perigee: 292.2447°
revolutions per day: 14.30031062
mean anomaly at epoch: 67.7891°
orbit number at epoch: 67732

The dashed part of the orbit path shows where the satellite is in the earth's shadow,  

DLR